Location: Unspecified
(0.0000°N, 0.0000°E)
Time: 03:17:00
(UTC+00:00)

BlueWalker 3 - Pass Details

Date: 20 July 2024
Orbit: 480 x 491 km, 53.2° (Epoch: 24 July)

Event Time Altitude Azimuth Distance (km) Brightness Sun altitude
Rises 19:35:58 0° 291° (WNW) 2,521 7.1 -20.9°
Reaches altitude 10° 19:39:17 10° 259° (W) 1,645 5.3 -21.7°
Maximum altitude 19:40:47 12° 235° (SW) 1,522 4.8 -22.0°
Drops below altitude 10° 19:42:17 10° 211° (SSW) 1,648 4.6 -22.4°
Enters shadow 19:42:56 - 203° (SSW) 1,769 4.7 -22.5°
